カタログに戻る

STARLINK-35137

運用中通信VLEO
NORAD 65686·PAYLOAD·🇺🇸 United States

打ち上げ Sep 21, 2025 から Cape Canaveral Space Force Station

Loading…

次のパス (今後24時間)

TLE

最新Source: CelesTrak SupGP

元期: Sep 14, 2026, 21:19 UTC

1 65686C 25212L   26257.88868056 -.00020455  00000+0 -60407-3 0  2578
2 65686  53.1569 173.6488 0001422 107.2278 348.6300 15.34415906    18

AllMySatでSTARLINK-35137をリアルタイム追跡

Download on the App Store